Caro, MI

11:06 PM EDT on May 24, 2018 (GMT -0400)
Caro

Weather History for KCFS - July, 2014

Change the Weather History Date:

Tuesday, July 15, 2014

  Actual Average (KMBS) Record (KMBS)
Temperature  
Mean Temperature 63 °F -  
Max Temperature 68 °F 80 °F 94 °F (1998)
Min Temperature 58 °F 58 °F 52 °F (2007)
Degree Days  
Heating Degree Days 2    
Growing Degree Days 13 (Base 50)    
Moisture  
Dew Point 58 °F    
Average Humidity 83    
Maximum Humidity 100    
Minimum Humidity 58    
Precipitation  
Precipitation 0.00 in - - ()
Sea Level Pressure  
Sea Level Pressure 29.76 in    
Wind  
Wind Speed 6 mph (West)    
Max Wind Speed 18 mph    
Max Gust Speed 31 mph    
Visibility 9 miles    
Events Rain    
Averages and records for this station are not official NWS values.
T = Trace of Precipitation, MM = Missing Value Source: NWS Daily Summary

Daily Weather History Graph

Daily Weather History Graph

Search for Another Location

Airport or City:

Astronomy

Jul. 15, 2014 Rise Set
Actual Time 6:06 AM EDT 9:12 PM EDT
Civil Twilight 5:32 AM EDT 9:46 PM EDT
Nautical Twilight 4:47 AM EDT 10:30 PM EDT
Astronomical Twilight 3:54 AM EDT 11:23 PM EDT
Moon 11:10 PM EDT (7/15) 10:07 AM EDT (7/15)
Length of Visible Light 16h 14m
Length of Day
15h 05m
Waning Gibbous, 85% of the Moon is Illuminated
Jul 15
Waning Gibbous
Jul 18
Last Quarter
Jul 26
New
Aug 3
First Quarter
Aug 10
Full

Hourly Weather History & Observations

Time (EDT) Temp. Dew Point Humidity Pressure Visibility Wind Dir Wind Speed Gust Speed Precip Events Conditions
12:14 AM 64.4 °F 63.7 °F 98% 29.75 in 7.0 mi Calm Calm - N/A Rain Light Rain
12:35 AM 64.0 °F 63.7 °F 99% 29.75 in 7.0 mi ESE 3.5 mph - N/A   Overcast
12:55 AM 63.9 °F 63.5 °F 99% 29.77 in 7.0 mi SSE 3.5 mph - N/A   Overcast
1:14 AM 63.7 °F 63.5 °F 99% 29.77 in 2.5 mi South 6.9 mph - N/A Rain Rain
1:35 AM 63.0 °F 62.6 °F 99% 29.75 in 5.0 mi Calm Calm - N/A Rain Rain
1:54 AM 62.8 °F 62.6 °F 99% 29.74 in 7.0 mi Calm Calm - N/A   Mostly Cloudy
2:14 AM 63.0 °F 62.6 °F 99% 29.74 in 7.0 mi Calm Calm - N/A   Overcast
2:35 AM 63.0 °F 62.8 °F 99% 29.73 in 7.0 mi Calm Calm - N/A   Overcast
2:54 AM 63.1 °F 62.8 °F 99% 29.71 in 7.0 mi Calm Calm - N/A   Overcast
3:15 AM 62.6 °F 62.4 °F 99% 29.71 in 5.0 mi Calm Calm - N/A   Mostly Cloudy
3:35 AM 62.1 °F 62.1 °F 100% 29.71 in 4.0 mi ESE 3.5 mph - N/A   Mostly Cloudy
3:54 AM 61.7 °F 61.7 °F 100% 29.71 in 7.0 mi Calm Calm - N/A   Overcast
4:15 AM 61.7 °F 61.7 °F 100% 29.71 in 5.0 mi Calm Calm - N/A   Mostly Cloudy
4:35 AM 61.7 °F 61.7 °F 100% 29.70 in 7.0 mi Calm Calm - N/A   Mostly Cloudy
4:54 AM 60.4 °F 60.4 °F 100% 29.70 in 4.0 mi SW 6.9 mph - N/A   Scattered Clouds
5:15 AM 61.2 °F 61.2 °F 100% 29.72 in 10.0 mi WSW 9.2 mph 20.7 mph N/A   Mostly Cloudy
5:35 AM 60.4 °F 60.3 °F 99% 29.71 in 10.0 mi West 6.9 mph - N/A   Overcast
5:54 AM 60.1 °F 59.7 °F 99% 29.70 in 10.0 mi Calm Calm - N/A   Mostly Cloudy
6:15 AM 59.4 °F 59.0 °F 99% 29.70 in 10.0 mi Calm Calm - N/A   Mostly Cloudy
6:34 AM 58.5 °F 58.1 °F 99% 29.70 in 7.0 mi SW 3.5 mph - N/A   Mostly Cloudy
6:55 AM 58.5 °F 58.3 °F 99% 29.70 in 7.0 mi Calm Calm - N/A   Scattered Clouds
7:15 AM 58.6 °F 58.5 °F 99% 29.71 in 7.0 mi SW 3.5 mph - N/A   Clear
7:34 AM 59.2 °F 59.0 °F 99% 29.72 in 10.0 mi WSW 8.1 mph - N/A   Scattered Clouds
7:55 AM 59.9 °F 59.4 °F 98% 29.72 in 10.0 mi West 10.4 mph - N/A   Mostly Cloudy
8:15 AM 61.0 °F 59.9 °F 96% 29.72 in 10.0 mi West 9.2 mph - N/A   Overcast
8:34 AM 61.7 °F 59.4 °F 92% 29.72 in 10.0 mi West 10.4 mph - N/A   Scattered Clouds
8:55 AM 62.6 °F 59.2 °F 89% 29.73 in 10.0 mi WSW 5.8 mph - N/A   Scattered Clouds
9:14 AM 62.6 °F 59.4 °F 89% 29.73 in 10.0 mi West 10.4 mph - N/A   Mostly Cloudy
9:34 AM 63.1 °F 59.2 °F 87% 29.73 in 10.0 mi West 12.7 mph - N/A   Mostly Cloudy
9:55 AM 64.8 °F 59.7 °F 84% 29.73 in 10.0 mi West 9.2 mph - N/A   Mostly Cloudy
10:14 AM 66.6 °F 59.2 °F 77% 29.73 in 10.0 mi West 10.4 mph - N/A   Scattered Clouds
10:35 AM 67.6 °F 57.6 °F 70% 29.73 in 10.0 mi WNW 9.2 mph 16.1 mph N/A   Mostly Cloudy
10:55 AM 65.7 °F 57.6 °F 75% 29.73 in 10.0 mi WNW 9.2 mph - N/A   Mostly Cloudy
11:14 AM 64.8 °F 57.2 °F 76% 29.73 in 10.0 mi West 9.2 mph - N/A   Mostly Cloudy
11:35 AM 65.3 °F 56.5 °F 73% 29.74 in 10.0 mi WSW 8.1 mph - N/A   Scattered Clouds
11:55 AM 67.6 °F 56.7 °F 68% 29.74 in 10.0 mi West 18.4 mph 31.1 mph N/A   Mostly Cloudy
12:14 PM 62.4 °F 57.6 °F 84% 29.74 in 10.0 mi WSW 10.4 mph 19.6 mph N/A Rain Light Rain
12:35 PM 63.5 °F 58.5 °F 84% 29.75 in 10.0 mi WSW 9.2 mph 16.1 mph N/A   Mostly Cloudy
12:55 PM 64.2 °F 56.1 °F 75% 29.77 in 10.0 mi West 12.7 mph 19.6 mph N/A   Mostly Cloudy
1:14 PM 65.8 °F 58.5 °F 77% 29.76 in 10.0 mi West 11.5 mph - N/A   Overcast
1:35 PM 67.8 °F 57.7 °F 70% 29.76 in 10.0 mi West 12.7 mph - N/A   Mostly Cloudy
1:54 PM 66.7 °F 59.4 °F 77% 29.76 in 10.0 mi West 8.1 mph - N/A   Mostly Cloudy
2:15 PM 65.1 °F 56.1 °F 73% 29.77 in 10.0 mi WSW 11.5 mph 17.3 mph N/A Rain Light Rain
2:35 PM 63.3 °F 58.1 °F 83% 29.77 in 10.0 mi SW 8.1 mph - N/A Rain Light Rain
2:54 PM 66.0 °F 58.8 °F 78% 29.77 in 10.0 mi WNW 15.0 mph 20.7 mph N/A   Mostly Cloudy
3:15 PM 66.9 °F 55.4 °F 66% 29.78 in 10.0 mi WNW 11.5 mph 17.3 mph N/A   Mostly Cloudy
3:35 PM 66.6 °F 55.0 °F 66% 29.78 in 10.0 mi WNW 13.8 mph 20.7 mph N/A   Mostly Cloudy
3:54 PM 67.8 °F 55.2 °F 64% 29.78 in 10.0 mi WNW 12.7 mph 19.6 mph N/A   Mostly Cloudy
4:15 PM 67.6 °F 53.1 °F 59% 29.78 in 10.0 mi WNW 16.1 mph 23.0 mph N/A   Scattered Clouds
4:34 PM 67.5 °F 53.6 °F 61% 29.78 in 10.0 mi WNW 13.8 mph 17.3 mph N/A   Clear
4:55 PM 68.7 °F 54.1 °F 60% 29.78 in 10.0 mi West 15.0 mph 20.7 mph N/A   Scattered Clouds
5:15 PM 68.0 °F 53.4 °F 60% 29.78 in 10.0 mi WNW 12.7 mph 20.7 mph N/A   Scattered Clouds
5:34 PM 67.8 °F 52.5 °F 58% 29.79 in 10.0 mi WNW 12.7 mph 17.3 mph N/A   Scattered Clouds
5:55 PM 66.4 °F 52.5 °F 61% 29.79 in 10.0 mi West 9.2 mph 18.4 mph N/A   Scattered Clouds
6:15 PM 65.3 °F 52.3 °F 63% 29.80 in 10.0 mi WNW 10.4 mph - N/A   Overcast
6:34 PM 62.6 °F 54.5 °F 75% 29.80 in 10.0 mi WNW 10.4 mph - N/A Rain Light Rain
6:55 PM 64.2 °F 54.5 °F 71% 29.80 in 10.0 mi West 12.7 mph 18.4 mph N/A   Overcast
7:14 PM 64.8 °F 54.9 °F 70% 29.80 in 10.0 mi West 9.2 mph - N/A   Overcast
7:55 PM 64.4 °F 55.2 °F 72% 29.81 in 10.0 mi West 8.1 mph - N/A   Overcast
8:14 PM 64.0 °F 55.8 °F 74% 29.82 in 10.0 mi WNW 8.1 mph - N/A   Overcast
8:35 PM 63.7 °F 53.8 °F 70% 29.82 in 10.0 mi WNW 9.2 mph - N/A   Overcast
8:55 PM 63.5 °F 53.8 °F 71% 29.83 in 10.0 mi West 9.2 mph - N/A   Overcast
9:14 PM 63.3 °F 54.0 °F 71% 29.83 in 10.0 mi West 6.9 mph - N/A   Overcast
9:35 PM 62.4 °F 55.6 °F 78% 29.84 in 10.0 mi WNW 5.8 mph - N/A Rain Heavy Rain
9:55 PM 61.9 °F 55.0 °F 78% 29.84 in 10.0 mi West 6.9 mph - N/A   Overcast
10:14 PM 62.1 °F 55.0 °F 78% 29.85 in 10.0 mi WNW 11.5 mph - N/A   Overcast
10:35 PM 61.7 °F 55.0 °F 79% 29.86 in 10.0 mi WNW 8.1 mph - N/A   Overcast
10:55 PM 61.0 °F 55.4 °F 82% 29.87 in 10.0 mi West 11.5 mph 17.3 mph N/A   Overcast
11:15 PM 60.8 °F 55.4 °F 82% 29.87 in 10.0 mi West 9.2 mph - N/A   Overcast
11:35 PM 60.1 °F 54.7 °F 82% 29.87 in 10.0 mi West 8.1 mph - N/A   Overcast
11:55 PM 58.8 °F 54.5 °F 86% 29.87 in 10.0 mi West 8.1 mph - N/A   Scattered Clouds